User: anonymous   Login
Location: Caltech
(34.1382°N, 118.1253°W)
Time: 22:38:11
(UTC-07:00)
Language:

Iridium 12 - Orbit

View from above orbital plane
View from above orbital plane
View from above satellite
View from above satellite

Ground track
Ground track

The orbit data is extracted from the following two-line orbital elements,

1 24837U 97030B   16180.46116367  .00000126  00000-0  38031-4 0  9991
2 24837  86.3976 137.9819 0002248  85.8565  36.2907 14.34219019996247
Epoch (UTC): 28 June 2016 11:04:04
Eccentricity: 0.0002248
inclination: 86.3976°
perigee height: 776 km
apogee height: 779 km
right ascension of ascending node: 137.9819°
argument of perigee: 85.8565°
revolutions per day: 14.34219019
mean anomaly at epoch: 36.2907°
orbit number at epoch: 99624

The dashed part of the orbit path shows where the satellite is in the earth's shadow,  

DLR